EW3345 Weather Reports


Display with metric or nautical units.
time (UTC)temp
F
wind
direction
speed
MPH
gust
MPH
rain 1hr
in
rain 24hr
in
rain mn
in
humidity
%
barometer
mb
20190117085616 37 235 11.0 16.0 0.00 0.00 0.00 94 979.5
20190117084616 38 240 8.0 14.0 0.00 0.00 0.00 94 979.5
20190117083617 38 265 11.0 14.0 0.00 0.00 0.00 94 979.7
20190117082616 38 241 8.0 16.0 0.00 0.00 0.00 94 979.8
20190117081616 37 233 9.0 16.0 0.00 0.00 0.00 94 979.9
20190117080616 37 272 10.0 18.0 0.00 0.00 0.00 94 979.7
20190117075616 37 258 12.0 19.0 0.00 0.00 0.00 94 979.8
20190117074617 37 277 10.0 15.0 0.00 0.00 0.00 94 979.8
20190117073616 37 253 11.0 15.0 0.00 0.00 0.00 94 979.9
20190117072616 37 274 10.0 16.0 0.00 0.00 0.00 94 980.0
20190117071616 37 241 10.0 17.0 0.00 0.00 0.00 94 980.0
20190117070616 37 250 10.0 13.0 0.00 0.00 0.00 94 980.1
20190117065616 37 256 10.0 15.0 0.00 0.00 0.00 94 980.2
20190117064616 37 260 15.0 19.0 0.00 0.00 0.00 94 980.1
20190117063616 37 251 13.0 17.0 0.00 0.00 0.00 94 980.1
20190117062616 37 269 7.0 12.0 0.00 0.00 0.00 95 980.3
20190117061616 37 257 8.0 19.0 0.00 0.00 0.00 94 980.3
20190117060616 37 241 9.0 14.0 0.00 0.00 0.00 94 980.3
20190117055616 37 261 12.0 16.0 0.00 0.00 0.00 95 980.4
20190117054617 36 277 7.0 12.0 0.00 0.00 0.00 95 980.5
20190117053616 36 286 6.0 17.0 0.00 0.00 0.00 95 980.6
20190117051616 36 256 9.0 14.0 0.00 0.00 0.00 95 980.7
20190117050616 35 243 8.0 16.0 0.00 0.00 0.00 95 980.8
20190117045616 35 252 6.0 10.0 0.00 0.00 0.00 95 980.9
20190117044616 35 257 5.0 8.0 0.00 0.00 0.00 95 981.1
20190117043616 34 233 6.0 10.0 0.00 0.00 0.00 95 981.3
20190117042616 34 242 6.0 14.0 0.00 0.00 0.00 95 981.5
20190117041616 34 206 5.0 12.0 0.00 0.00 0.00 95 981.6
20190117040616 33 229 5.0 7.0 0.00 0.00 0.00 95 981.8
20190117035616 33 174 5.0 13.0 0.00 0.00 0.00 95 982.0
20190117034616 33 208 6.0 14.0 0.00 0.00 0.00 95 982.2
20190117033616 33 225 7.0 13.0 0.00 0.00 0.00 95 982.4
20190117032616 32 228 6.0 10.0 0.00 0.00 0.00 94 982.6
20190117031616 32 181 6.0 11.0 0.00 0.00 0.00 94 982.7
20190117030616 32 202 7.0 12.0 0.00 0.00 0.00 94 983.0
20190117025616 32 223 9.0 16.0 0.00 0.00 0.00 94 983.2
20190117024616 31 204 6.0 11.0 0.00 0.00 0.00 94 983.3
20190117023616 31 213 6.0 12.0 0.00 0.00 0.00 94 983.6
20190117022616 30 208 8.0 14.0 0.00 0.00 0.00 94 983.5
20190117020616 29 182 4.0 8.0 0.00 0.00 0.00 94 983.9
20190117015616 29 195 8.0 15.0 0.00 0.00 0.00 94 984.2
20190117014616 29 213 6.0 11.0 0.00 0.00 0.00 94 984.3
20190117013616 29 183 5.0 8.0 0.00 0.00 0.00 94 984.4
20190117012616 28 178 6.0 11.0 0.00 0.00 0.00 94 984.5
20190117011616 28 190 6.0 11.0 0.00 0.00 0.00 94 984.9
20190117010616 28 163 8.0 18.0 0.00 0.00 0.00 94 985.0
20190117005616 28 170 6.0 15.0 0.00 0.00 0.00 94 985.2
20190117004616 27 202 6.0 17.0 0.00 0.00 0.00 94 985.6
20190117003616 27 182 5.0 10.0 0.00 0.00 0.00 94 985.7
20190117002616 27 181 4.0 14.0 0.00 0.00 0.00 94 985.9
20190117001616 27 161 7.0 14.0 0.00 0.00 0.00 93 986.3
20190117000616 27 163 7.0 13.0 0.00 0.00 0.00 93 986.6
20190116235616 27 161 9.0 15.0 0.00 0.00 0.00 94 986.8
20190116234616 27 164 6.0 11.0 0.00 0.00 0.00 93 987.1
20190116233616 26 155 10.0 17.0 0.00 0.00 0.00 93 987.3
20190116232616 26 150 6.0 16.0 0.00 0.00 0.00 93 987.7
20190116231616 26 148 6.0 9.0 0.00 0.00 0.00 93 988.2
20190116230616 25 158 6.0 11.0 0.00 0.00 0.00 93 988.6
20190116225616 25 149 5.0 12.0 0.00 0.00 0.00 93 989.0
20190116224615 25 143 5.0 9.0 0.00 0.00 0.00 93 989.2
20190116223615 25 152 6.0 11.0 0.00 0.00 0.00 93 989.9
20190116222615 24 157 7.0 10.0 0.00 0.00 0.00 93 990.2
20190116221615 24 153 5.0 10.0 0.00 0.00 0.00 93 990.5
20190116220616 24 164 4.0 8.0 0.00 0.00 0.00 92 990.9
20190116215615 24 159 3.0 7.0 0.00 0.00 0.00 91 991.3
20190116214615 24 152 5.0 9.0 0.00 0.00 0.00 91 991.7
20190116213616 24 160 3.0 7.0 0.00 0.00 0.00 90 992.0
20190116212615 24 158 4.0 6.0 0.00 0.00 0.00 91 992.2
20190116211617 24 159 4.0 8.0 0.00 0.00 0.00 91 992.4
20190116210615 24 168 2.0 6.0 0.00 0.00 0.00 91 992.6
20190116205615 24 159 5.0 8.0 0.00 0.00 0.00 91 992.8
20190116204615 24 160 3.0 6.0 0.00 0.00 0.00 92 993.1
20190116203615 24 155 4.0 8.0 0.00 0.00 0.00 92 993.2
20190116202615 24 158 2.0 5.0 0.00 0.00 0.00 92 993.4
20190116201615 24 162 2.0 4.0 0.00 0.00 0.00 92 993.5
20190116200615 23 163 1.0 4.0 0.00 0.00 0.00 92 993.6
20190116195615 23 162 2.0 5.0 0.00 0.00 0.00 92 993.8
20190116194615 23 157 2.0 6.0 0.00 0.00 0.00 92 993.9
20190116193615 23 168 2.0 6.0 0.00 0.00 0.00 92 994.1
20190116192615 23 158 1.0 5.0 0.00 0.00 0.00 92 994.2
20190116191615 23 183 1.0 5.0 0.00 0.00 0.00 92 994.4
20190116190617 22 188 1.0 5.0 0.00 0.00 0.00 92 994.4
20190116185617 22 197 2.0 5.0 0.00 0.00 0.00 92 994.5
20190116184617 22 197 2.0 7.0 0.00 0.00 0.00 92 994.5
20190116183617 22 181 0.0 2.0 0.00 0.00 0.00 92 994.6
20190116182617 22 184 1.0 2.0 0.00 0.00 0.00 92 994.6
20190116181617 23 162 1.0 3.0 0.00 0.00 0.00 92 994.7
20190116180617 23 163 2.0 7.0 0.00 0.00 0.00 92 994.8
20190116175617 23 153 0.0 2.0 0.00 0.00 0.00 92 995.0
20190116174617 22 158 2.0 4.0 0.00 0.00 0.00 92 995.2
20190116173617 23 167 0.0 2.0 0.00 0.00 0.00 92 995.3
20190116172617 23 167 0.0 2.0 0.00 0.00 0.00 92 995.4
20190116171618 23 175 0.0 2.0 0.00 0.00 0.00 92 995.7
20190116170617 23 0.0 0.0 0.00 0.00 0.00 92 995.6
20190116165617 23 218 0.0 1.0 0.00 0.00 0.00 92 995.7
20190116164617 23 217 0.0 1.0 0.00 0.00 0.00 92 995.8
20190116163617 23 217 0.0 2.0 0.00 0.00 0.00 92 995.9
20190116162617 23 217 0.0 4.0 0.00 0.00 0.00 92 995.9
20190116161617 23 236 1.0 3.0 0.00 0.00 0.00 92 996.0
20190116160617 22 244 0.0 3.0 0.00 0.00 0.00 92 996.1
20190116155617 22 252 0.0 2.0 0.00 0.00 0.00 92 996.1
20190116154617 22 258 1.0 3.0 0.00 0.00 0.00 92 996.1
20190116153617 22 0.0 2.0 0.00 0.00 0.00 92 996.0
20190116152617 22 258 0.0 2.0 0.00 0.00 0.00 91 996.0
20190116151617 22 258 0.0 3.0 0.00 0.00 0.00 91 995.9
20190116150617 21 258 0.0 2.0 0.00 0.00 0.00 91 995.8
20190116145617 21 258 0.0 2.0 0.00 0.00 0.00 91 995.8
20190116144617 21 0.0 1.0 0.00 0.00 0.00 91 995.9
20190116143617 21 0.0 0.0 0.00 0.00 0.00 90 995.9
20190116142618 22 258 0.0 1.0 0.00 0.00 0.00 90 996.0
20190116141617 22 258 0.0 3.0 0.00 0.00 0.00 90 996.0
20190116140617 22 242 0.0 3.0 0.00 0.00 0.00 89 996.0
20190116135617 22 300 2.0 4.0 0.00 0.00 0.00 89 995.9
20190116134617 22 293 3.0 4.0 0.00 0.00 0.00 89 996.0
20190116133617 23 278 2.0 4.0 0.00 0.00 0.00 89 996.1
20190116132617 23 284 2.0 5.0 0.00 0.00 0.00 88 996.0
20190116131617 23 283 4.0 6.0 0.00 0.00 0.00 88 995.9
20190116130617 24 275 3.0 5.0 0.00 0.00 0.00 87 995.8
20190116125617 24 273 3.0 5.0 0.00 0.00 0.00 87 995.8
20190116124617 24 282 4.0 7.0 0.00 0.00 0.00 87 995.7
20190116123618 24 279 5.0 8.0 0.00 0.00 0.00 87 995.5
20190116122617 24 299 6.0 9.0 0.00 0.00 0.00 87 995.5
20190116121617 24 297 5.0 7.0 0.00 0.00 0.00 87 995.5
20190116120617 24 303 4.0 8.0 0.00 0.00 0.00 87 995.3
20190116115617 24 298 7.0 9.0 0.00 0.00 0.00 87 995.3
20190116114617 24 318 5.0 7.0 0.00 0.00 0.00 87 995.4
20190116113617 24 297 9.0 14.0 0.00 0.00 0.00 87 995.3
20190116112617 24 310 5.0 8.0 0.00 0.00 0.00 87 995.2
20190116111617 24 295 14.0 18.0 0.00 0.00 0.00 87 995.2
20190116110617 24 290 4.0 9.0 0.00 0.00 0.00 87 995.2
20190116105617 24 299 10.0 14.0 0.00 0.00 0.00 87 995.0
20190116104617 24 303 5.0 10.0 0.00 0.00 0.00 87 995.1
20190116103617 24 295 7.0 12.0 0.00 0.00 0.00 87 994.9
20190116102616 24 291 6.0 9.0 0.00 0.00 0.00 87 994.9
20190116101617 24 294 5.0 8.0 0.00 0.00 0.00 86 994.9
20190116100616 24 297 6.0 10.0 0.00 0.00 0.00 87 994.9
20190116095617 24 294 6.0 11.0 0.00 0.00 0.00 88 994.9
20190116094616 24 292 6.0 9.0 0.00 0.00 0.00 89 994.9
20190116093617 24 301 5.0 7.0 0.00 0.00 0.00 90 994.6
20190116092617 24 296 5.0 7.0 0.00 0.00 0.00 90 994.6
20190116091616 24 294 8.0 12.0 0.00 0.00 0.00 90 994.5
20190116090617 24 297 7.0 11.0 0.00 0.00 0.00 90 994.4